User: anonymous   Login
Location: Edoum�
(0.9447°N, 10.6482°E)
Time: 13:58:02
(UTC+00:00)
Language:

Cosmos 405 - Orbit

View from above orbital plane
View from above orbital plane
View from above satellite
View from above satellite

Ground track
Ground track

The orbit data is extracted from the following two-line orbital elements,

1  5117U 71028A   20218.57586865 +.00001305 +00000-0 +36180-4 0  9996
2  5117 081.2611 081.6646 0010566 146.4920 238.6483 15.36094798688176
Epoch (UTC): 05 August 2020 13:49:15
Eccentricity: 0.0010566
inclination: 81.2611°
perigee height: 450 km
apogee height: 465 km
right ascension of ascending node: 81.6646°
argument of perigee: 146.4920°
revolutions per day: 15.36094798
mean anomaly at epoch: 238.6483°
orbit number at epoch: 68817

The dashed part of the orbit path shows where the satellite is in the earth's shadow,  

DLR